Total_Precipitation_Accumulation
1.38 1.35 1.28 1.32 1.20 1.10 1.15 1.24 1.29 1.35 1.26 1.11 1.07 1.10 1.20 1.17 1.23 1.45 1.88 2.48 3.08 3.53 3.72 3.61 3.49 3.38 3.36 3.38 3.60 3.77 3.89 4.03 3.85 3.67 3.50 3.31 3.34 3.34 2.97 2.92 3.08 3.35 3.70
1.41 1.46 1.39 1.31 1.24 1.16 1.18 1.35 1.32 1.35 1.34 1.28 1.12 1.14 1.19 1.16 1.18 1.25 1.44 1.89 2.38 2.92 3.55 3.93 3.77 3.55 3.36 3.34 3.41 3.53 3.72 3.78 3.43 3.28 3.28 3.34 3.48 3.55 3.14 2.99 2.96 2.99 3.28
1.24 1.32 1.33 1.26 1.23 1.24 1.27 1.31 1.35 1.43 1.36 1.27 1.23 1.21 1.20 1.16 1.11 1.16 1.12 1.27 1.46 2.01 2.72 3.30 3.64 3.72 3.70 3.57 3.51 3.54 3.65 3.44 3.11 3.13 3.26 3.29 3.30 3.35 3.31 3.14 2.94 2.87 3.00
1.35 1.34 1.37 1.32 1.32 1.34 1.33 1.37 1.45 1.46 1.43 1.41 1.37 1.33 1.21 1.19 1.14 1.13 1.08 1.07 1.16 1.24 1.62 2.11 2.65 3.14 3.47 3.61 3.74 3.85 3.63 3.20 2.91 2.83 2.97 2.85 2.78 2.92 3.06 3.05 2.88 2.76 2.67
1.42 1.52 1.54 1.52 1.46 1.48 1.49 1.44 1.47 1.39 1.41 1.42 1.33 1.35 1.30 1.27 1.21 1.08 1.11 1.08 1.10 1.08 1.22 1.39 1.67 2.04 2.51 3.05 3.63 3.89 3.46 3.11 2.88 2.64 2.56 2.48 2.52 2.64 2.69 2.54 2.48 2.43 2.40
1.67 1.83 1.89 1.78 1.73 1.72 1.71 1.65 1.69 1.59 1.48 1.51 1.38 1.36 1.34 1.26 1.28 1.26 1.24 1.16 1.20 1.16 1.16 1.20 1.30 1.32 1.59 2.14 2.95 3.44 3.32 3.11 2.89 2.73 2.51 2.44 2.54 2.64 2.60 2.50 2.46 2.46 2.46
1.96 2.10 2.01 2.08 2.08 1.95 1.93 1.99 2.03 2.00 1.81 1.66 1.71 1.60 1.35 1.17 1.25 1.22 1.24 1.30 1.31 1.39 1.40 1.30 1.32 1.34 1.31 1.56 2.18 2.88 3.15 3.07 3.03 2.86 2.70 2.61 2.53 2.55 2.53 2.49 2.51 2.56 2.65
2.16 2.19 2.26 2.36 2.37 2.38 2.31 2.19 2.30 2.46 2.19 1.95 2.07 2.36 1.97 1.63 1.27 1.05 1.16 1.26 1.33 1.57 1.60 1.40 1.25 1.26 1.33 1.48 1.51 1.95 2.39 2.74 2.96 3.02 2.91 2.77 2.66 2.67 2.72 2.58 2.50 2.61 2.66
2.39 2.40 2.46 2.51 2.51 2.37 2.37 2.48 2.61 2.95 2.76 2.38 2.17 2.48 2.33 2.02 1.72 1.27 1.15 1.25 1.35 1.50 1.61 1.65 1.55 1.45 1.38 1.46 1.50 1.39 1.60 2.08 2.57 2.95 3.03 2.98 2.84 3.04 3.21 2.96 2.63 2.49 2.35
2.37 2.45 2.44 2.42 2.38 2.33 2.39 2.47 2.52 2.95 3.18 2.89 2.52 2.10 1.89 1.87 2.00 1.73 1.30 1.25 1.35 1.38 1.48 1.56 1.53 1.62 1.57 1.60 1.65 1.44 1.35 1.69 2.14 2.67 3.07 3.40 3.21 3.01 2.98 3.08 2.88 2.51 2.25
2.27 2.28 2.25 2.34 2.33 2.36 2.42 2.60 2.72 3.00 3.05 3.07 2.87 2.62 2.38 2.07 1.76 1.86 1.82 1.54 1.48 1.37 1.45 1.57 1.61 1.74 1.78 1.81 1.98 1.74 1.47 1.40 1.66 2.16 2.77 3.37 3.59 3.31 2.98 2.91 2.87 2.67 2.35
2.22 2.15 2.11 2.17 2.28 2.40 2.44 2.54 2.71 2.97 3.11 3.21 3.10 2.80 2.70 2.55 2.28 2.17 1.94 1.80 1.76 1.51 1.46 1.51 1.55 1.70 1.89 1.96 1.95 2.11 1.76 1.37 1.33 1.67 2.06 2.72 3.40 3.57 3.37 3.23 3.15 3.03 2.76
1.89 1.96 2.04 2.12 2.25 2.33 2.39 2.50 2.63 2.70 2.84 3.10 3.12 2.93 2.71 2.53 2.52 2.40 2.30 2.00 1.80 1.56 1.53 1.54 1.52 1.57 1.62 1.91 2.04 2.16 1.82 1.46 1.25 1.31 1.52 1.88 2.43 3.00 3.28 3.28 3.29 3.40 3.40
1.81 1.75 1.79 1.86 2.08 2.27 2.35 2.44 2.45 2.44 2.51 2.71 2.72 2.78 2.74 2.50 2.45 2.38 2.39 2.53 2.23 1.95 1.74 1.53 1.46 1.51 1.55 1.75 2.07 2.16 1.71 1.56 1.33 1.22 1.25 1.45 1.68 1.91 2.36 2.88 3.21 3.42 3.62
1.59 1.54 1.58 1.61 1.73 1.93 2.18 2.33 2.31 2.24 2.21 2.37 2.43 2.52 2.66 2.70 2.60 2.51 2.51 2.65 2.65 2.37 2.10 1.82 1.60 1.48 1.55 1.66 2.08 1.98 1.74 1.67 1.56 1.36 1.21 1.26 1.33 1.46 1.65 2.04 2.35 2.59 2.75
1.42 1.35 1.37 1.48 1.64 1.74 1.91 2.11 2.19 2.15 2.17 2.25 2.37 2.48 2.63 2.77 2.79 2.58 2.55 2.58 2.50 2.48 2.31 1.88 1.61 1.52 1.60 1.57 1.95 1.92 1.85 1.92 1.68 1.53 1.43 1.33 1.36 1.35 1.40 1.59 1.66 1.80 1.79
1.26 1.25 1.39 1.48 1.55 1.65 1.82 2.05 2.20 2.22 2.16 2.17 2.17 2.25 2.45 2.57 2.80 2.74 2.64 2.58 2.49 2.40 2.29 2.03 1.77 1.60 1.67 1.70 1.82 1.92 1.90 1.81 1.63 1.61 1.46 1.33 1.32 1.35 1.35 1.45 1.58 1.57 1.48
1.03 1.13 1.27 1.30 1.34 1.37 1.57 1.86 2.06 2.11 2.11 2.01 1.96 2.07 2.31 2.50 2.71 2.82 2.77 2.65 2.59 2.47 2.39 2.36 2.17 1.92 1.79 1.78 1.93 2.04 1.99 1.91 1.84 1.86 1.71 1.51 1.43 1.36 1.36 1.35 1.43 1.56 1.54
1.07 1.17 1.22 1.26 1.29 1.34 1.37 1.51 1.70 1.84 1.85 1.80 1.81 1.83 1.85 2.05 2.35 2.56 2.60 2.66 2.68 2.64 2.64 2.54 2.38 2.29 2.13 1.90 2.01 2.08 2.06 2.07 1.96 2.03 2.01 1.88 1.74 1.62 1.51 1.45 1.45 1.48 1.53
1.06 1.14 1.17 1.23 1.31 1.35 1.36 1.39 1.42 1.48 1.54 1.62 1.67 1.67 1.71 1.76 2.00 2.21 2.30 2.46 2.70 2.74 2.81 2.78 2.53 2.43 2.36 2.09 2.12 2.25 2.34 2.26 2.16 2.02 2.06 1.97 1.94 1.84 1.73 1.58 1.51 1.45 1.44
0.97 1.05 1.11 1.11 1.16 1.25 1.36 1.42 1.31 1.27 1.36 1.46 1.45 1.39 1.42 1.60 1.82 1.96 1.93 2.20 2.54 2.75 2.80 2.79 2.64 2.60 2.40 2.21 2.07 2.04 2.19 2.42 2.42 2.34 2.26 2.03 1.92 1.77 1.77 1.79 1.62 1.46 1.42
0.96 0.99 0.94 0.96 1.04 1.07 1.34 1.38 1.22 1.15 1.20 1.30 1.39 1.37 1.25 1.28 1.40 1.53 1.58 1.72 1.97 2.21 2.54 2.77 2.70 2.60 2.31 2.16 2.13 2.09 2.08 2.19 2.39 2.33 2.32 2.35 2.27 2.16 2.04 1.94 1.93 1.78 1.64
0.93 0.95 0.92 0.90 0.93 1.06 1.20 1.10 1.15 1.08 1.12 1.18 1.27 1.36 1.28 1.17 1.33 1.36 1.49 1.58 1.54 1.61 1.94 2.33 2.49 2.51 2.49 2.39 2.31 2.15 2.08 2.12 2.17 2.20 2.37 2.41 2.38 2.38 2.29 2.30 2.39 2.17 1.96
0.90 0.91 0.96 0.97 0.95 1.03 1.09 1.00 1.10 1.05 1.03 1.08 1.21 1.31 1.36 1.30 1.35 1.49 1.45 1.46 1.39 1.38 1.65 1.68 1.91 2.31 2.47 2.52 2.41 2.41 2.54 2.47 2.28 2.17 2.20 2.26 2.14 2.18 2.24 2.27 2.43 2.31 2.15
0.92 0.95 1.00 1.00 0.93 0.94 1.05 1.01 1.06 1.03 1.02 1.04 1.07 1.15 1.25 1.20 1.46 1.61 1.49 1.60 1.59 1.48 1.71 1.83 1.90 2.01 2.20 2.38 2.41 2.35 2.38 2.44 2.37 2.25 2.07 1.97 1.87 1.91 2.05 2.08 2.10 2.20 2.16
0.76 0.89 0.92 0.93 0.94 0.92 1.17 1.13 1.12 1.02 1.04 1.11 1.13 1.10 1.29 1.32 1.50 1.51 1.35 1.55 1.61 1.57 1.56 1.61 1.61 1.64 1.60 1.80 2.08 2.11 2.29 2.34 2.24 2.15 1.87 1.78 1.72 1.80 1.92 1.77 1.62 1.62 1.60